Showing default

KITSAT B, 22828

Orbit data source: Space-Track

KITSAT B, 22828 is a payload satellite owned by KAIST (KR) in SSO that was launched on Sun, 26 Sep 1993 UTC via an ARIANE 40 launch vehicle from the French Guiana (FRGUI). Payload-class satellites include a variety of spacecraft equipped with specific instruments for various scientific and technological missions. These include communications satellites like Starlink; space stations such as the ISS; scientific satellites like the Hubble; Earth observation satellites from companies like Planet Labs, Umbra, and HawkEye 360; GPS; miniature CubeSats for education and research; and military/defense satellites.

Loading next visibility...
Identifier
22828, 1993-061F
Orbit
SSO
Country
Flag of UnknownUnknown / SKOR
Related business
Manufacturer
SSTL
Mission
Non-operational Civil Com/Imaging
Bus & Motor
UOSAT, Unknown motor
Mass
50 kg wet, 50 kg dry
Launch date (UTC)
1993-09-26 (32 years ago)
Launch vehicle
ARIANE 40
Launch site
French Guiana (FRGUI)
Object type
Payload
Rocket body
Debris
Shape & HBR
Box + 1 Ant, 3.3 m
Radar Cross Section
0.632 m², Medium (>0.1 m² and < 1m²)

Expand to show TLE details & history
Last TLE update: 6 hours ago

TLE from 6 hours ago
0 KITSAT B
1 22828U 93061F   25308.41677014  .00000194  00000-0  89550-4 0  9994
2 22828  98.7174  10.2752 0009554 353.5416   6.5643 14.31688596643645
Epoch: 2025-11-04T10:00Z
TLE epoch observation values (Epoch: 2025-11-04T10:00:08.940Z)
Latitude
0.00007°
Longitude
176.33384°
Altitude
782.221 km
Speed
7.466 km/s
True Right ascension
00h 41m 06s
True Declination
0° 00' 00"
Sunlit
Object was in full shadow at epoch
Visualization orbit readout
Latitude
Unknown
Longitude
Unknown
Altitude
Unknown
Speed
Unknown
Apparent Right ascension
Unknown
Apparent Declination
Unknown
Sunlit
N/A
Visualization observer readout
Local Sidereal Time
11:57:11
Azimuth
Unknown
Elevation
Unknown
Doppler factor
Unknown
Orbital elements
Apogee altitude
790.077 km
Perigee altitude
776.393 km
Semi-major axis
7,161.372 km
Eccentricity
0.00096
Inclination
98.7174°
RAAN
10.2752°
Arg. of periapsis
353.5416°
True anomaly
6.57683°
Mean anomaly
6.5643°
Eccentric anomaly
6.57056°
Mean motion
3.58137 °/min
Orbital period
100.52 mins
BSTAR
0.00008955
Loading maneuver chart data...
Computing Atmospheric mass density...
Loading historical data...
Loading historical data...
Loading historical data...
Loading historical data...
Loading historical data...
Loading historical data...
Loading historical data...

Documentation

Showing up to 5 results
|